Home   Weather   Penrith   Past weeks
Flag for Australia

Past Weather in Penrith, New South Wales, Australia — Yesterday and Last 2 Weeks

Now
75 °F

Sunny.


Feels Like: 77 °F
Forecast: 74 / 51 °F
Wind: 21 mph from West

Location: Richmond Aus-Afb

Current Time: Apr 4, 2020 at 5:29:03 pm

Latest Report: Apr 4, 2020 at 4:30 pm


Visibility: N/A

Pressure: 29.62 "Hg

Humidity: 34%

Dew Point: 45 °F

Location of PenrithLocation

Past Weather in Penrith — Graph

°F

Penrith Temperature Yesterday

Maximum temperature yesterday: 79 °F (at 1:30 pm)
Minimum temperature yesterday: 59 °F (at 5:30 am)
Average temperature yesterday: 68 °F

High & Low Weather Summary for the Past Weeks

 TemperatureHumidityPressure
High95 °F (Mar 20, 4:00 pm)100% (Mar 21, 4:00 am)30.33 "Hg (Mar 21, 4:00 am)
Low55 °F (Mar 28, 4:42 am)23% (Mar 20, 6:00 pm)29.42 "Hg (Apr 4, 5:30 am)
Average68 °F84%30.05 "Hg
* Reported Mar 20 4:00 pm — Apr 4 4:30 pm, Penrith. Weather by CustomWeather, © 2020

Note: Actual official high and low records may vary slightly from our data, if they occured in-between our weather recording intervals... More about our weather records

Penrith Weather History for the Previous 24 Hours

Scroll right to see more
 ConditionsComfort  
Time TempWeatherWind HumidityBarometerVisibility
4:30 pm
Sat, Apr 4
75 °FSunny.21 mph34%29.62 "HgN/A
4:04 pm75 °FSunny.21 mph34%29.59 "HgN/A
3:45 pm75 °FSunny.17 mph36%29.59 "HgN/A
3:30 pm77 °FScattered clouds.16 mph36%29.59 "HgN/A
3:01 pm75 °FSunny.22 mph34%29.59 "HgN/A
2:34 pm75 °FSunny.22 mph34%29.56 "HgN/A
2:11 pm75 °FSunny.22 mph36%29.56 "HgN/A
1:58 pm75 °FSunny.23 mph36%29.56 "HgN/A
1:31 pm77 °FSunny.18 mph32%29.56 "HgN/A
1:00 pm79 °FSunny.21 mph34%29.53 "HgN/A
12:30 pm77 °FSunny.24 mph39%29.53 "HgN/A
12:15 pm77 °FSunny.20 mph42%29.53 "HgN/A
12:00 pm79 °FScattered clouds.18 mph42%29.53 "HgN/A
11:47 am77 °FScattered clouds.18 mph44%29.53 "HgN/A
11:00 am77 °FScattered clouds.9 mph57%29.53 "HgN/A
10:30 am75 °FScattered clouds.8 mph65%29.50 "HgN/A
10:00 am72 °FCloudy.13 mph69%29.53 "HgN/A
9:30 am72 °FCloudy.7 mph69%29.53 "HgN/A
9:00 am70 °FBroken clouds.5 mph88%29.50 "HgN/A
8:30 am70 °FCloudy.6 mph83%29.47 "HgN/A
8:00 am68 °FBroken clouds.7 mph94%29.47 "HgN/A
7:30 am68 °FOvercast.10 mph100%29.45 "HgN/A
7:00 am68 °FMostly cloudy.13 mph100%29.45 "HgN/A
6:30 am68 °FMostly cloudy.15 mph100%29.45 "HgN/A
6:00 am68 °FMostly cloudy.16 mph94%29.42 "HgN/A
5:30 am68 °FPassing clouds.9 mph94%29.42 "HgN/A
5:00 am68 °FPassing clouds.7 mph94%29.45 "HgN/A
4:30 am68 °FPassing clouds.9 mph94%29.45 "HgN/A
4:00 am68 °FClear.10 mph94%29.45 "HgN/A
3:30 am68 °FClear.9 mph94%29.47 "HgN/A
3:00 am68 °FClear.6 mph94%29.50 "HgN/A
2:30 am68 °FClear.10 mph94%29.50 "HgN/A
2:00 am68 °FClear.10 mph94%29.53 "HgN/A
1:30 am68 °FClear.8 mph94%29.53 "HgN/A
1:00 am68 °FClear.6 mph94%29.53 "HgN/A
12:30 am68 °FClear.5 mph94%29.56 "HgN/A
12:00 am68 °FPassing clouds.9 mph94%29.56 "HgN/A
11:30 pm
Fri, Apr 3
68 °FClear.7 mph94%29.59 "HgN/A
11:00 pm68 °FPassing clouds.9 mph94%29.59 "HgN/A
10:30 pm68 °FClear.6 mph94%29.62 "HgN/A
10:00 pm68 °FClear.9 mph100%29.62 "HgN/A
9:30 pm68 °FClear.12 mph100%29.62 "HgN/A
9:00 pm68 °FClear.9 mph100%29.62 "HgN/A
8:30 pm68 °FClear.7 mph100%29.65 "HgN/A
8:00 pm68 °FClear.7 mph100%29.65 "HgN/A
7:30 pm68 °FClear.8 mph100%29.65 "HgN/A
7:00 pm68 °FPassing clouds.6 mph100%29.65 "HgN/A
6:25 pm70 °FMore clouds than sun.6 mph94%29.65 "HgN/A
6:00 pm70 °FBroken clouds.6 mph100%29.68 "HgN/A
5:30 pm70 °FOvercast.3 mph100%29.68 "HgN/A
5:00 pm70 °FMostly cloudy.5 mph94%29.68 "HgN/A
Weather by CustomWeather, © 2020

See weather overview

Advertising